"Pseudo-MPEC" for ST23K48

Created 2023 Nov 30 8:22:08 UT using Find_Orb

Click here for an explanation of pseudo-MPECs

 
 Astrometry: 
     ST23K48* C2023 11 150SFjb:1jcY4/M(*v6S7yr:qCaR:uT%N!IjoAstrometry[Zqxmw2U68
     ST23K48  C2023 11 15$:,!*9l)2,TUG`Jvo)JJRo?g)jewhQyFE,GOym21SAA'EvPN!ZJsU68
     ST23K48  C2023 11 15HSd3*,?*RdjTredacted;niGZU!!PU]O,3#a4]1a_KsIWl-d0w$@U68
     ST23K48  C2023 11 15?_u@:KPw61Wwyob`Tf')wMclick6a^g%.E!)?/Imc_XA6WjherexU68
     ST23K48 KB2023 11 15rxY85SSwk@V.(Uc2O%uxM^8+%N=I'5H`M(V5/9'*J52%xxTXs-+X958
     ST23K48 KB2023 11 15Ej7s-;vc:#kq@ZZ3a]P+=O)qaWXFi#6wxAQt^Fx)=rdQ_KpCV!`+958
     ST23K48 KB2023 11 15^1F;jl*G\exZ`P/Eva(mYlDrn;NIU3for.A3Ie%.2;s1v3;_2kF;958
     ST23K48 KB2023 11 188Y-6QY+maTHNCa@.@NA\!,24!qGF=b^PIt']YtDhws*@ZJ)!RJ7SG15
     ST23K48 KB2023 11 180IB1tCWk_oAbCHE#explanationwjkN=OnQTQ,,UC:eF6P@Ya10,G15

Station data:
(958) Observatoire de Dax  (N43.693324 W1.030390)  France.  Observer P.
   Dupouy. 0.32-m Schmidt-Cassegrain.
(G15) Magroforte Observatory, Alessandria  (N44.772005 E9.118300)  Italy.
   Observer A. De Pieri. 0.25-m f/6.7 Schmidt-Cassegrain + CCD.
(U68) JPL SynTrack Robotic Telescope, Auberry  (N37.070387 W119.412990)
   US/California.  Observers N. Saini, C. Zhai, R. Trahan, M. Zhan, M. Shao.
   0.28-m f/2.2 Schmidt + CCD.

Orbital elements:  ST23K48
   Perihelion 2023 Nov 5.84539 +/- 0.00677 TT = 20:17:21 (JD 2460254.34539)
Epoch 2023 Nov 18.0 TT = JDT 2460266.5   Earth MOID: 0.0105   Ma: 0.0003
M   8.35509467 +/- 0.0019           (J2000 ecliptic)             AutoNEOCP
n   0.68740138 +/- 0.000425         Peri.  347.16861 +/- 0.008
a   1.27153733 +/- 0.000524         Node    54.80720 +/- 0.00013
e   0.2157830 +/- 0.000318          Incl.    3.65112 +/- 0.0047
P   1.43/523.70d           H 28.45  G  0.15   U  7.5
q 0.99716111 +/- 7.23e-6    Q 1.54591354 +/- 0.00104
From 9 observations 2023 Nov. 15-18; mean residual 0".64
Residuals in arcseconds: 
231115 U68  .03-  .18-    231115 U68  .27-  .29+    231115 958  1.0+  .28+    
231115 U68  .01-  .06+    231115 958  .90-  1.2-    231118 G15  .98-  .78+    
231115 U68  .28+  .13-    231115 958  .06-  .86+    231118 G15  .98+  .77-    

Ephemerides (geocentric):
Date (UTC) HH   RA             Dec           delta  r     elong  mag " sig PA
---- --------  ------------   ------------  ------ ------ -----  --- --------
2023 11 30 08  06 23 10.644   +48 13 49.79  .03611 1.0158 144.1 22.7 6.90  55
2023 11 30 09  06 23 21.775   +48 15 03.23  .03619 1.0158 144.1 22.7 6.91  55
2023 11 30 10  06 23 32.850   +48 16 16.18  .03628 1.0159 144.1 22.7 6.93  55
2023 11 30 11  06 23 43.868   +48 17 28.62  .03636 1.0159 144.1 22.7 6.94  55
2023 11 30 12  06 23 54.831   +48 18 40.57  .03645 1.0160 144.1 22.7 6.96  55
2023 11 30 13  06 24 05.739   +48 19 52.03  .03654 1.0161 144.1 22.7 6.98  55
2023 11 30 14  06 24 16.591   +48 21 03.00  .03662 1.0161 144.1 22.7 6.99  55
2023 11 30 15  06 24 27.388   +48 22 13.49  .03671 1.0162 144.1 22.7 7.01  55
2023 11 30 16  06 24 38.130   +48 23 23.50  .03680 1.0163 144.1 22.7 7.02  55
2023 11 30 17  06 24 48.818   +48 24 33.03  .03688 1.0163 144.1 22.8 7.04  55
2023 11 30 18  06 24 59.452   +48 25 42.09  .03697 1.0164 144.0 22.8 7.06  55
2023 11 30 19  06 25 10.031   +48 26 50.68  .03706 1.0164 144.0 22.8 7.07  55
2023 11 30 20  06 25 20.557   +48 27 58.80  .03714 1.0165 144.0 22.8 7.09  55
2023 11 30 21  06 25 31.030   +48 29 06.47  .03723 1.0166 144.0 22.8 7.10  55
2023 11 30 22  06 25 41.449   +48 30 13.67  .03732 1.0166 144.0 22.8 7.12  55
2023 11 30 23  06 25 51.815   +48 31 20.42  .03740 1.0167 144.0 22.8 7.13  55
2023 12 01 00  06 26 02.128   +48 32 26.71  .03749 1.0168 144.0 22.8 7.15  55
2023 12 01 01  06 26 12.389   +48 33 32.56  .03758 1.0168 144.0 22.8 7.16  55
2023 12 01 02  06 26 22.598   +48 34 37.96  .03766 1.0169 144.0 22.8 7.18  55
2023 12 01 03  06 26 32.755   +48 35 42.91  .03775 1.0169 144.0 22.8 7.19  56
2023 12 01 04  06 26 42.859   +48 36 47.43  .03784 1.0170 144.0 22.8 7.21  56
2023 12 01 05  06 26 52.913   +48 37 51.51  .03792 1.0171 144.0 22.8 7.22  56
2023 12 01 06  06 27 02.915   +48 38 55.16  .03801 1.0171 144.0 22.8 7.24  56
2023 12 01 07  06 27 12.866   +48 39 58.37  .03810 1.0172 144.0 22.8 7.25  56
2023 12 01 08  06 27 22.766   +48 41 01.16  .03819 1.0173 144.0 22.8 7.27  56
2023 12 01 09  06 27 32.615   +48 42 03.53  .03827 1.0173 144.0 22.8 7.28  56
2023 12 01 10  06 27 42.414   +48 43 05.47  .03836 1.0174 144.0 22.8 7.30  56
2023 12 01 11  06 27 52.163   +48 44 06.99  .03845 1.0175 144.0 22.8 7.31  56
2023 12 01 12  06 28 01.862   +48 45 08.10  .03853 1.0175 144.0 22.9 7.32  56
2023 12 01 13  06 28 11.511   +48 46 08.80  .03862 1.0176 144.0 22.9 7.34  56
2023 12 01 14  06 28 21.111   +48 47 09.08  .03871 1.0176 144.0 22.9 7.35  56
2023 12 01 15  06 28 30.661   +48 48 08.96  .03880 1.0177 144.0 22.9 7.37  56
2023 12 01 16  06 28 40.162   +48 49 08.44  .03888 1.0178 144.0 22.9 7.38  56
2023 12 01 17  06 28 49.615   +48 50 07.51  .03897 1.0178 144.0 22.9 7.39  56
2023 12 01 18  06 28 59.019   +48 51 06.18  .03906 1.0179 144.0 22.9 7.41  56
2023 12 01 19  06 29 08.375   +48 52 04.46  .03914 1.0180 144.0 22.9 7.42  56
2023 12 01 20  06 29 17.682   +48 53 02.35  .03923 1.0180 144.0 22.9 7.44  56
2023 12 01 21  06 29 26.942   +48 53 59.84  .03932 1.0181 144.0 22.9 7.45  56
2023 12 01 22  06 29 36.154   +48 54 56.95  .03941 1.0182 144.0 22.9 7.46  56
2023 12 01 23  06 29 45.318   +48 55 53.67  .03949 1.0182 144.0 22.9 7.48  56
2023 12 02 00  06 29 54.435   +48 56 50.01  .03958 1.0183 144.0 22.9 7.49  56
2023 12 02 01  06 30 03.505   +48 57 45.97  .03967 1.0184 144.0 22.9 7.50  56
2023 12 02 02  06 30 12.528   +48 58 41.55  .03976 1.0184 144.0 22.9 7.52  56
2023 12 02 03  06 30 21.505   +48 59 36.75  .03984 1.0185 144.0 22.9 7.53  56
2023 12 02 04  06 30 30.434   +49 00 31.58  .03993 1.0186 144.0 22.9 7.54  56
2023 12 02 05  06 30 39.318   +49 01 26.05  .04002 1.0186 144.0 22.9 7.56  57
2023 12 02 06  06 30 48.156   +49 02 20.14  .04011 1.0187 144.0 22.9 7.57  57
2023 12 02 07  06 30 56.948   +49 03 13.87  .04019 1.0188 144.0 22.9 7.58  57